Location: Krakow
(50.0830°N, 19.9170°E)
Time: 23:10:28
(UTC+02:00)

Transit 4A - Visible Passes

Search period start: 15 July 2024 00:00
Search period end: 25 July 2024 00:00
Orbit: 870 x 973 km, 66.8° (Epoch: 15 July)

Date Brightness Start Highest point End Pass type
(mag) Time Alt. Az. Time Alt. Az. Time Alt. Az.
15 Jul 10.0 00:05:55 10° NNW 00:10:39 24° NNE 00:15:27 10° E visible
15 Jul 8.1 01:52:03 10° NW 01:58:02 70° NE 02:04:09 10° SE visible
15 Jul 8.8 03:38:59 10° NW 03:43:55 27° WSW 03:48:57 10° SSW visible
15 Jul 10.4 22:28:06 10° NNW 22:31:37 16° N 22:35:11 10° NE visible
16 Jul 9.7 00:14:56 10° NNW 00:20:01 28° NNE 00:25:12 10° E visible
16 Jul 7.8 02:01:04 10° NW 02:07:05 89° WSW 02:13:14 10° SSE visible
16 Jul 9.2 03:48:35 10° WNW 03:52:40 19° WSW 03:56:49 10° SSW visible
16 Jul 10.4 22:37:25 10° NNW 22:41:10 17° NNE 22:44:58 10° NE visible
17 Jul 9.3 00:23:54 10° NNW 00:29:19 35° NE 00:34:52 10° ESE visible
17 Jul 7.8 02:10:08 10° NW 02:16:05 66° WSW 02:21:43 12° SSE visible
17 Jul 9.6 03:58:46 10° WNW 04:01:21 13° WSW 04:03:57 10° SW visible
17 Jul 10.3 22:46:35 10° NNW 22:50:40 19° NNE 22:54:49 10° ENE visible
18 Jul 8.9 00:32:52 10° NNW 00:38:34 44° NE 00:44:24 10° ESE visible
18 Jul 8.1 02:19:16 10° NW 02:25:00 48° WSW 02:29:10 19° S visible
18 Jul 10.0 22:55:40 10° NNW 23:00:09 21° NNE 23:04:40 10° ENE visible
19 Jul 8.4 00:41:51 10° NNW 00:47:45 57° NE 00:53:28 12° SE visible
19 Jul 8.6 02:28:30 10° NW 02:33:52 34° WSW 02:36:52 22° SSW visible
19 Jul 10.3 21:17:34 10° NW 21:21:02 16° N 21:24:31 10° NE visible
19 Jul 9.8 23:04:42 10° NNW 23:09:34 25° NNE 23:14:28 10° E visible
20 Jul 8.0 00:50:49 10° NW 00:56:51 76° NE 01:01:21 19° SE visible
20 Jul 9.0 02:37:55 10° WNW 02:42:39 25° WSW 02:44:46 20° SW visible
20 Jul 10.3 21:26:58 10° NNW 21:30:34 16° N 21:34:12 10° NE visible
20 Jul 9.4 23:13:42 10° NNW 23:18:54 30° NE 23:24:13 10° E visible
21 Jul 7.8 00:59:51 10° NW 01:05:53 82° SW 01:09:22 27° SSE visible
21 Jul 9.4 02:47:37 10° WNW 02:51:22 17° WSW 02:52:48 16° WSW visible
21 Jul 10.2 21:36:14 10° NNW 21:40:06 17° NNE 21:44:01 10° NE visible
21 Jul 9.1 23:22:39 10° NNW 23:28:12 37° NE 23:33:51 10° ESE visible
22 Jul 7.9 01:08:56 10° NW 01:14:51 60° WSW 01:17:29 34° S visible
22 Jul 9.7 02:58:12 10° W 03:00:01 11° W 03:00:56 11° WSW visible
22 Jul 10.0 21:45:23 10° NNW 21:49:36 19° NNE 21:53:52 10° ENE visible
22 Jul 8.6 23:31:37 10° NNW 23:37:25 48° NE 23:42:16 15° ESE visible
23 Jul 8.3 01:18:06 10° NW 01:23:45 43° WSW 01:25:42 33° SSW visible
23 Jul 9.8 21:54:27 10° NNW 21:59:03 22° NNE 22:03:43 10° ENE visible
23 Jul 8.2 23:40:36 10° NNW 23:46:34 62° NE 23:50:33 22° SE visible
24 Jul 8.8 01:27:23 10° NW 01:32:36 31° WSW 01:34:00 28° SW visible
24 Jul 9.5 22:03:27 10° NNW 22:08:27 26° NNE 22:13:31 10° E visible
